[[{"header":{"parameterUnit":"m.s-1","parameterCategory":1,"la1":30.2991,"la2":30.254,"lo1":-89.0895,"lo2":-89.0444,"dy":0.0017,"dx":0.0017,"nx":28,"ny":28,"refTime":"2024-05-18T21:00:00:Z","depth":0,"parameterNumber":2,"parameterNumberName":"U-component_of_WINDS"},"data":[0,0,0,0,0,0,0,0,0,0,0,0,0,0,0,0,0,0,0,0,0,0,0,0,0,0,0,0,0,0,0,0,0,0,0,0,0,0,0,0,0,0,0,0,0,0,0,0,0,0,0,0,0,0,0,0,0,0,0.7544,0.7545,0,0.7685,0.7686,0.7688,0.7712,0.7711,0.771,0.7708,0.7856,0.7861,0.7866,0,0,0,0,0,0,0,0,0,0,0,0,0,0.7298,0.7303,0.7544,0.7545,0.7547,0.7684,0.7686,0.7688,0.7712,0.7711,0.7709,0.7708,0.7855,0.7861,0.7867,0,0,0,0,0,0,0,0,0,0,0,0,0,0.7419,0.7304,0.7543,0.7576,0.758,0.7684,0.7686,0.7689,0.7712,0.7711,0.7709,0.7707,0.7853,0.786,0.7868,0.7951,0,0,0.7891,0.7894,0,0,0,0,0,0,0,0,0.7412,0.7428,0.7569,0.7574,0.7578,0.7679,0.7654,0.7777,0.7713,0.7662,0.7708,0.7706,0.7799,0.7811,0.7841,0.7957,0.7964,0.7891,0.7896,0.7899,0.7901,0,0,0,0,0,0,0,0.7403,0.7422,0.76,0.7571,0.7577,0.7584,0.7599,0.7677,0.7739,0.7667,0.7669,0.7685,0.7801,0.7834,0.7845,0.7966,0.7891,0.7898,0.7903,0.7906,0.8157,0.8159,0,0,0,0,0,0,0.7389,0.7415,0.7595,0.7604,0.7489,0.759,0.7607,0.7649,0.7738,0.775,0.7686,0.7685,0.7822,0.7836,0.785,0.7953,0.7899,0.7906,0.7911,0.8155,0.8158,0.816,0,0,0,0,0,0,0.7383,0.7405,0.7589,0.751,0.7534,0.7596,0.7643,0.7652,0.7685,0.7753,0.7765,0.7708,0.7821,0.784,0.7925,0.7959,0.791,0.7917,0.8153,0.8156,0.8159,0.816,0,0,0,0,0,0,0.7376,0.7403,0.7434,0.751,0.7538,0.7661,0.7645,0.7656,0.7698,0.7698,0.7777,0.7788,0.7821,0.7914,0.7933,0.7968,0.7923,0.815,0.8154,0.8158,0.8157,0.8162,0.8167,0,0,0,0,0,0.7367,0.743,0.7436,0.7457,0.7578,0.7663,0.7679,0.7714,0.77,0.7733,0.7776,0.7786,0.7952,0.7922,0.7944,0.7982,0.8148,0.8153,0.8157,0.8155,0.8161,0.8167,0,0,0,0,0,0,0.7357,0.744,0.7448,0.7536,0.7592,0.7667,0.7709,0.7721,0.7783,0.778,0.7823,0.7841,0.7924,0.7962,0.7927,0.8067,0.8049,0.8058,0.8039,0.8046,0.8051,0.8041,0.7929,0,0,0,0,0,0.7365,0.7425,0.7495,0.7566,0.7594,0.7646,0.7685,0.7707,0.7767,0.7791,0.7841,0.79,0.7966,0.8008,0.8072,0.8162,0.818,0.8199,0.8205,0.8208,0.8216,0.8266,0.8276,0.8176,0.8176,0.8176,0,0,0.7382,0.7435,0.7471,0.7566,0.7612,0.7674,0.7666,0.7733,0.778,0.7802,0.7885,0.7924,0.7993,0.8081,0.8122,0.8115,0.8247,0.8215,0.8217,0.8223,0.8272,0.8282,0.829,0.8179,0.8178,0.8178,0,0,0.7445,0.7491,0.7555,0.7601,0.767,0.7705,0.772,0.7793,0.7819,0.7903,0.7921,0.7978,0.809,0.8138,0.8177,0.8257,0.8268,0.8277,0.8304,0.8353,0.8361,0.8368,0.8396,0.8406,0.8285,0.8285,0.8285,0,0.7457,0.7551,0.7587,0.7653,0.7694,0.7715,0.7781,0.7824,0.7912,0.794,0.793,0.8071,0.8119,0.8218,0.8237,0.8268,0.8288,0.8269,0.8356,0.8364,0.8371,0.8399,0.841,0.8285,0.8285,0.8285,0.8285,0,0.7564,0.7629,0.7672,0.7754,0.7801,0.7866,0.7912,0.7955,0.7974,0.8009,0.8095,0.8153,0.8229,0.8254,0.8273,0.8356,0.8349,0.8347,0.833,0.8381,0.8407,0.8418,0.8286,0.8286,0.8286,0.8286,0,0,0.7624,0.7724,0.774,0.7777,0.7855,0.7907,0.7973,0.8046,0.8082,0.8142,0.8199,0.8292,0.8291,0.8335,0.836,0.8403,0.8462,0.8396,0.8398,0.8406,0.8557,0.8558,0.8569,0.847,0.8472,0.8474,0.8551,0,0.7696,0.7814,0.7848,0.7948,0.8009,0.803,0.8088,0.8142,0.8177,0.8234,0.8274,0.8339,0.8333,0.8359,0.8402,0.8446,0.8493,0.8441,0.8524,0.8526,0.8506,0.8583,0.8584,0.8655,0.8562,0.8564,0.8565,0,0.7796,0.7856,0.7961,0.8031,0.8058,0.8109,0.8179,0.8233,0.8295,0.8318,0.8367,0.8388,0.8458,0.8437,0.8535,0.8499,0.8535,0.8561,0.8565,0.8574,0.8549,0.8594,0.8678,0.8688,0.8582,0.8581,0.8579,0,0.7829,0.7936,0.8013,0.8045,0.8128,0.8164,0.82,0.8261,0.8302,0.8363,0.8391,0.846,0.8497,0.8551,0.859,0.857,0.8685,0.8666,0.8706,0.8705,0.8729,0.8727,0.8819,0.8752,0.8752,0.8752,0.8752,0,0.7906,0.797,0.8029,0.8077,0.8149,0.8187,0.8258,0.8296,0.8349,0.8405,0.8428,0.8479,0.8528,0.8586,0.8617,0.8694,0.8711,0.8732,0.8739,0.873,0.8727,0.8754,0.875,0.8755,0.8754,0.8754,0.8753,0,0.7955,0.7997,0.8083,0.8154,0.8174,0.8224,0.8285,0.8333,0.8368,0.8438,0.8457,0.8513,0.8583,0.8627,0.8716,0.8737,0.8821,0.8827,0.88,0.8803,0.884,0.8835,0.8952,0.897,0.8891,0.8892,0.8893,0,0.8001,0.805,0.8127,0.8165,0.8202,0.8263,0.8305,0.8345,0.8389,0.8463,0.8501,0.8572,0.8631,0.8742,0.8791,0.886,0.8867,0.8904,0.8878,0.8866,0.8868,0.8864,0.8869,0.8908,0.8909,0.8909,0.891,0,0.8078,0.8096,0.8156,0.8223,0.8272,0.8327,0.8382,0.8412,0.8462,0.8509,0.858,0.8626,0.8716,0.8787,0.8859,0.8898,0.8912,0.8917,0.893,0.892,0.8902,0.8912,0.8811,0.8914,0.8914,0.8914,0.8913,0.8913,0.8127,0.8172,0.8232,0.8298,0.8343,0.8394,0.8441,0.8482,0.8542,0.8618,0.8638,0.8712,0.8774,0.8872,0.8912,0.8971,0.8966,0.8985,0.8989,0.8993,0.8993,0.8893,0.8985,0.8985,0.8985,0.8984,0.8984,0,0.8205,0.8244,0.8304,0.838,0.8431,0.8439,0.85,0.8543,0.8608,0.8663,0.872,0.8802,0.887,0.8925,0.8995,0.9032,0.904,0.9049,0.9046,0.9055,0.8994,0.8976,0.9041,0.9041,0.9041,0.9041,0.9041,0.9041,0.8251,0.8327,0.8353,0.8451,0.8491,0.8563,0.8597,0.8644,0.8688,0.8778,0.8834,0.8869,0.8924,0.8998,0.9061,0.9076,0.91,0.9108,0.9123,0.9065,0.9059,0.9053,0.9036,0.9113,0.9113,0.9179,0.918,0.918]},{"header":{"parameterUnit":"m.s-1","parameterCategory":1,"la1":30.2991,"la2":30.254,"lo1":-89.0895,"lo2":-89.0444,"dy":0.0017,"dx":0.0017,"nx":28,"ny":28,"refTime":"2024-05-18T21:00:00:Z","depth":0,"parameterNumber":3,"parameterNumberName":"V-component_of_WINDS"},"data":[0,0,0,0,0,0,0,0,0,0,0,0,0,0,0,0,0,0,0,0,0,0,0,0,0,0,0,0,0,0,0,0,0,0,0,0,0,0,0,0,0,0,0,0,0,0,0,0,0,0,0,0,0,0,0,0,0,0,2.1489,2.149,0,2.1588,2.1589,2.159,2.1528,2.1525,2.1522,2.1519,2.1619,2.1625,2.163,0,0,0,0,0,0,0,0,0,0,0,0,0,2.1241,2.1246,2.1489,2.149,2.1492,2.1588,2.1589,2.1591,2.1529,2.1525,2.1521,2.1518,2.1618,2.1624,2.163,0,0,0,0,0,0,0,0,0,0,0,0,0,2.1345,2.1248,2.1489,2.1472,2.1472,2.1588,2.1589,2.1591,2.1529,2.1525,2.152,2.1516,2.1615,2.1623,2.1631,2.1769,0,0,2.1656,2.1659,0,0,0,0,0,0,0,0,2.134,2.1355,2.1473,2.1474,2.1473,2.1541,2.1539,2.1651,2.153,2.1507,2.1519,2.1514,2.1597,2.1606,2.1634,2.1774,2.1778,2.1657,2.1662,2.1665,2.1667,0,0,0,0,0,0,0,2.1333,2.135,2.1528,2.1475,2.1475,2.1458,2.1468,2.1559,2.1575,2.1509,2.1505,2.1517,2.1596,2.1627,2.1636,2.1779,2.1656,2.1664,2.1669,2.1672,2.203,2.2034,0,0,0,0,0,0,2.1327,2.1344,2.1525,2.1531,2.1394,2.1466,2.1477,2.1524,2.1574,2.1578,2.1521,2.1514,2.1615,2.1627,2.1639,2.1799,2.1665,2.1673,2.1677,2.2025,2.2031,2.2036,0,0,0,0,0,0,2.1322,2.1344,2.1521,2.1437,2.1458,2.1475,2.1528,2.1528,2.1559,2.1583,2.1586,2.155,2.1612,2.1628,2.1736,2.1802,2.1676,2.1684,2.202,2.2027,2.2033,2.2123,0,0,0,0,0,0,2.1315,2.1342,2.1396,2.1438,2.1463,2.1618,2.1532,2.1533,2.1573,2.1565,2.1611,2.1614,2.161,2.1724,2.1744,2.1811,2.169,2.2014,2.2023,2.2031,2.2114,2.2132,2.2147,0,0,0,0,0,2.1307,2.1419,2.1399,2.1422,2.1531,2.1622,2.1635,2.1628,2.1579,2.1632,2.1646,2.1613,2.1792,2.1736,2.1757,2.1828,2.2009,2.202,2.203,2.2106,2.2128,2.2147,0,0,0,0,0,0,2.1384,2.1424,2.1403,2.1532,2.1574,2.1611,2.1678,2.1653,2.1709,2.1699,2.1687,2.1698,2.181,2.183,2.1766,2.196,2.1893,2.1908,2.1943,2.1964,2.198,2.1972,2.1697,0,0,0,0,0,2.1417,2.1488,2.1519,2.163,2.1651,2.1661,2.1701,2.1691,2.1734,2.1751,2.1774,2.1816,2.188,2.1924,2.1986,2.2117,2.2123,2.2176,2.2192,2.2206,2.2218,2.2284,2.2306,2.207,2.207,2.207,0,0,2.1484,2.1514,2.156,2.1646,2.1677,2.1749,2.1676,2.1757,2.1809,2.1763,2.1865,2.1883,2.1929,2.2047,2.2101,2.2067,2.2285,2.2219,2.223,2.2235,2.2297,2.2319,2.2339,2.2077,2.2076,2.2075,0,0,2.1642,2.1675,2.1768,2.18,2.1847,2.1852,2.1875,2.1915,2.1925,2.2027,2.1992,2.2053,2.2168,2.2199,2.2231,2.2397,2.2366,2.2417,2.2503,2.2567,2.2586,2.2602,2.2657,2.2677,2.243,2.243,2.2431,0,2.172,2.1828,2.1819,2.1901,2.1937,2.1898,2.199,2.2021,2.2087,2.2112,2.2074,2.2212,2.2241,2.2363,2.2403,2.2432,2.2454,2.2411,2.2584,2.26,2.2615,2.2667,2.2688,2.2436,2.2435,2.2435,2.2434,0,2.1918,2.1993,2.2063,2.2125,2.217,2.2257,2.2258,2.2304,2.2291,2.2299,2.24,2.2433,2.2497,2.2526,2.2515,2.2646,2.2624,2.2586,2.2517,2.2644,2.2692,2.2712,2.2444,2.2442,2.244,2.2439,0,0,2.2129,2.2183,2.2208,2.2233,2.2281,2.2338,2.2422,2.2485,2.2522,2.2568,2.2635,2.273,2.2693,2.2729,2.272,2.2777,2.2899,2.2731,2.2731,2.2757,2.3041,2.3066,2.309,2.288,2.2884,2.2887,2.3035,0,2.2286,2.2432,2.2424,2.256,2.2626,2.2588,2.266,2.2696,2.2705,2.2761,2.2771,2.2837,2.2786,2.2807,2.2861,2.2873,2.2956,2.2863,2.2939,2.2942,2.2925,2.3116,2.3145,2.3283,2.3055,2.3058,2.306,0,2.249,2.2541,2.2683,2.2715,2.2743,2.2808,2.2862,2.2918,2.2956,2.2959,2.2996,2.2977,2.3058,2.2989,2.3097,2.3034,2.3065,2.3075,2.308,2.3085,2.3007,2.3121,2.3327,2.3347,2.3091,2.3088,2.3086,0,2.2624,2.2728,2.2824,2.2848,2.2891,2.2936,2.2956,2.299,2.3026,2.3074,2.3097,2.3154,2.3184,2.3227,2.3222,2.3173,2.3331,2.3263,2.3332,2.3332,2.3365,2.3362,2.3575,2.3391,2.3391,2.3391,2.339,0,2.2799,2.2886,2.2884,2.2944,2.3038,2.3028,2.3122,2.3136,2.3166,2.3225,2.3197,2.3252,2.3244,2.33,2.3296,2.3384,2.3399,2.3401,2.3398,2.3401,2.3401,2.3419,2.3408,2.3396,2.3395,2.3394,2.3393,0,2.2963,2.2967,2.3068,2.3099,2.3109,2.3177,2.3202,2.3257,2.3262,2.3337,2.3354,2.3363,2.3426,2.3426,2.3499,2.3496,2.3602,2.3591,2.3589,2.3586,2.3653,2.3645,2.3882,2.3911,2.3712,2.3714,2.3716,0,2.3073,2.3139,2.3175,2.3213,2.3234,2.3296,2.3332,2.3323,2.3362,2.3408,2.3456,2.3516,2.3564,2.3666,2.3678,2.3732,2.3719,2.3798,2.3727,2.3726,2.3715,2.3709,2.3714,2.3811,2.3814,2.3815,2.3817,0,2.3266,2.3263,2.3317,2.337,2.3414,2.3456,2.3495,2.3526,2.3521,2.3566,2.3629,2.3666,2.3739,2.3797,2.3849,2.3867,2.384,2.3839,2.3857,2.386,2.3854,2.3853,2.3623,2.3833,2.3832,2.3831,2.383,2.3829,2.3403,2.3458,2.3491,2.355,2.3578,2.3613,2.3664,2.3675,2.3728,2.3786,2.3778,2.3848,2.3879,2.3946,2.3968,2.4021,2.3993,2.402,2.4026,2.4032,2.4038,2.3848,2.4031,2.403,2.403,2.4029,2.4029,0,2.359,2.3609,2.3664,2.3717,2.3763,2.3734,2.3774,2.3814,2.3875,2.3908,2.3954,2.4025,2.4081,2.4096,2.4149,2.4188,2.4177,2.4202,2.4197,2.4201,2.4062,2.4039,2.421,2.421,2.421,2.421,2.421,2.421,2.3693,2.3782,2.3782,2.3883,2.39,2.3968,2.3993,2.4024,2.4049,2.4129,2.4175,2.4184,2.4209,2.4262,2.4311,2.4314,2.4333,2.4362,2.436,2.4229,2.4211,2.4194,2.4172,2.4368,2.4368,2.4493,2.4494,2.4495]}]]